{"data":{"norad_id":67999,"intl_designator":"2026-039P","name":"STARLINK-36926","alt_names":[],"object_type":"PAYLOAD","status":"ACTIVE","operator":null,"country":"US","launch_date":"2026-02-27","launch_site_code":"AFETR","launch_vehicle":null,"mission":null,"orbit_class":"UNKNOWN","rcs_meters":null,"size_class":null,"mass_kg":null,"dimensions":null,"purposes":["comms"],"wikipedia_slug":null,"has_3d_model":false,"image_url":null,"decayed_at":null,"tle_current":{"epoch":"2026-09-20T01:19:13.543104Z","epoch_age_seconds":98144,"freshness":"FRESH","line1":"1 67999U 26039P   26263.05501786  .00013801  00000+0  50999-3 0  9998","line2":"2 67999  43.0012  30.8641 0001849 281.7332  78.3312 15.27586876 31432","mean_motion":15.27586876,"eccentricity":0.0001849,"inclination_deg":43.0012,"raan_deg":30.8641,"arg_perigee_deg":281.7332,"mean_anomaly_deg":78.3312,"bstar":0.00050999,"rev_number":3143,"period_min":94.266324398561,"perigee_km":481.75987739703,"apogee_km":484.29713640148,"semimajor_km":6861.1655068993,"source":"CELESTRAK","updated_at":"2026-09-20T09:00:43.737391Z"}}}